Flag for Canada Weather past 2 weeks in Edmonton, Alberta, Canada

Now
19 °F

Clear.


Feels Like: 10 °F
Forecast: 18 / 29 °F
Wind: 7 mph from Southeast

Location: Edmonton Municipal

Current Time: Jan 29, 2015 at 1:36:02 AM

Latest Report: Jan 29, 2015 at 1:00 AM


Visibility: 9 mi

Pressure: 30.50 "Hg

Humidity: 79%

Dew point: 14 °F

Location of EdmontonLocation

Historic Weather in Edmonton — Graph

°F

Edmonton temperature yesterday

Maximum temperature yesterday: 32 °F (at 12:00 AM)
Minimum temperature yesterday: 18 °F (at 11:00 PM)
Average temperature yesterday: 26 °F

Past Weeks' High & Low Weather Summary

 TemperatureHumidityPressure
High50 °F (Jan 22, 3:00 PM)100% (Jan 15, 10:48 AM)30.51 "Hg (Jan 15, 10:48 AM)
Low14 °F (Jan 21, 3:00 AM)43% (Jan 22, 3:00 PM)29.43 "Hg (Jan 16, 10:58 AM)
Average33 °F71%29.90 "Hg
* Reported Midnight between Jan 13 and Jan 14 — Midnight between Jan 28 and Jan 29, Edmonton, Weather by CustomWeather, © 2014

Note: Actual official high and low records may vary slightly from our data, if they occured in-between our weather recording intervals... More about our weather records

Advertising

Edmonton weather history for previous 24 hours

 ConditionsComfort  
Time TempWeatherWind HumidityBarometerVisibility
12:00 AM
Jan 29
19 °FClear.6 mph86%30.51 "Hg9 mi
11:00 PM
Jan 28
18 °FPassing clouds.5 mph86%30.50 "Hg9 mi
10:00 PM19 °FClear.5 mph79%30.50 "Hg9 mi
9:00 PM19 °FClear.2 mph79%30.49 "Hg9 mi
8:00 PM21 °FClear.5 mph74%30.48 "Hg9 mi
7:00 PM21 °FClear.3 mph80%30.46 "Hg9 mi
6:00 PM25 °FLow clouds.7 mph86%30.45 "Hg9 mi
5:00 PM25 °FLow clouds.2 mph86%30.43 "Hg9 mi
4:00 PM25 °FLow clouds.3 mph86%30.41 "Hg9 mi
3:00 PM25 °FLow clouds.6 mph80%30.40 "Hg9 mi
2:00 PM25 °FLow clouds.5 mph80%30.38 "Hg9 mi
1:00 PM25 °FLow clouds.5 mph74%30.40 "Hg9 mi
12:00 PM23 °FLow clouds.5 mph80%30.38 "Hg9 mi
11:00 AM23 °FLow clouds.9 mph74%30.36 "Hg9 mi
10:00 AM23 °FOvercast.9 mph80%30.32 "Hg9 mi
9:00 AM27 °FLow clouds.13 mph86%30.27 "Hg9 mi
8:00 AM28 °FPassing clouds.6 mph86%30.22 "Hg9 mi
7:00 AM30 °FMostly cloudy.7 mph86%30.19 "Hg9 mi
6:00 AM32 °FClear.7 mph87%30.14 "Hg9 mi
5:00 AM30 °FPassing clouds.7 mph93%30.11 "Hg9 mi
4:00 AM32 °FClear.6 mph93%30.08 "Hg8 mi
3:00 AM32 °FLow clouds.8 mph93%30.06 "Hg1 mi
2:59 AM32 °FLow clouds.8 mph93%29.98 "Hg1 mi
2:00 AM32 °FLow clouds.7 mph93%30.04 "Hg1 mi
1:58 AM32 °FLow clouds.8 mph93%29.96 "Hg1 mi
1:00 AM32 °FLow clouds.5 mph93%30.01 "Hg1 mi
Weather by CustomWeather, © 2014

See weather overviewHow to use our weather pages